Tracking 31027 objects as of 19-Jul-2025
HD Live streaming from Space Station
objects crossing your sky now

COSMOS 1655

Track COSMOS 1655 now!
10-day predictions
COSMOS 1655 is classified as:


NORAD ID: 15751
Int'l Code: 1985-041A
Perigee: 981.1 km
Apogee: 1,018.6 km
Inclination: 83.0 °
Period: 105.0 minutes
Semi major axis: 7370 km
RCS: 1.6706 m2 (large)
Launch date: May 30, 1985
Source: Commonwealth of Independent States (former USSR) (CIS)
Launch site: PLESETSK MISSILE AND SPACE COMPLEX (PKMTR)
Your satellite tracking list
IRIDIUM 135
Track 1 satellite(s)




NASA's NSSDC Master Catalog

Two Line Element Set (TLE):
1 15751U 85041A   25199.56118483  .00000054  00000-0  43038-4 0  9990
2 15751  82.9512 312.2662 0025447 304.4209  65.9932 13.71901811  8952
Source of the keplerian elements: AFSPC